#timestamp,LO_Frequency,Hit,StdDev 
1686078015.4,286047000.7,N
1686078035.2,286047000.9,N
1686078055.1,286047001.0,N
1686078056.0,286047001.0,N
1686078075.8,286047000.6,N
1686078095.6,286047001.0,N
1686078115.5,286047001.1,N
1686078135.3,286047001.2,N
1686078155.2,286047000.8,N
1686078175.9,286046998.1,N
1686078195.7,286046998.1,N
1686078215.6,286046998.3,N
1686078235.4,286047001.1,N
1686078255.2,286047000.7,N
1686078275.1,286047000.8,N
1686078276.0,286047000.8,N
1686078295.8,286047001.0,N
1686078315.7,286047000.6,N
1686078335.5,286047001.0,N
1686078355.3,286047000.1,N
1686078375.2,286047002.7,N
1686078395.0,286047002.1,N
1686078395.9,286047002.1,N
1686078415.8,286047002.2,N
1686078435.6,286046999.9,N
1686078455.4,286047002.2,N
1686078475.3,286047002.8,N
1686078495.1,286047002.2,N
1686078496.0,286047002.2,N
1686078515.8,286047002.3,N
1686078535.7,286047002.8,N
1686078555.5,286047002.5,N
1686078575.3,286047002.5,N
1686078595.2,286047002.8,N
1686078615.0,286047002.0,N
1686078615.9,286047002.0,N
1686078635.8,286047002.2,N
1686078655.6,286047001.6,N
1686078675.4,286047001.9,N
1686078695.3,286047000.1,N
1686078715.1,286047002.0,N
1686078735.9,286047001.9,N
1686078755.7,286047002.0,N
1686078775.5,286047001.6,N
1686078795.4,286047002.1,N
1686078815.2,286047002.0,N
1686078835.0,286047002.2,N
1686078835.9,286047002.2,N
1686078855.8,286047002.2,N
1686078875.6,286047002.0,N
1686078895.5,286047002.2,Y
1686078915.3,286047001.2,P
1686078935.1,286046999.6,N
1686078955.9,286046998.8,N
1686078975.7,286046999.3,N
1686078995.5,286047000.8,N
1686079015.4,286047000.0,N
1686079035.2,286047000.9,N
1686079055.1,286047001.0,N
1686079056.0,286047001.0,N
1686079075.8,286047001.0,N
1686079095.6,286047001.0,N
1686079115.5,286047000.3,N
1686079135.3,286047000.4,N
1686079155.2,286047000.7,N
1686079175.9,286047000.9,N
1686079195.7,286046998.6,N
1686079215.6,286046999.6,N
1686079235.4,286046999.1,N
1686079255.2,286046996.7,Y
1686079275.1,286046996.7,P
1686079276.0,286046996.7,N
1686079295.8,286046996.5,N
1686079315.7,286046999.5,N
1686079335.5,286046999.2,N
1686079355.3,286046998.1,N
1686079375.2,286046998.2,N
1686079395.0,286046998.7,N
1686079395.9,286046998.7,N
1686079415.7,286047001.2,N
1686079435.6,286047000.8,N
1686079455.4,286046999.0,N
1686079475.3,286046998.6,N
1686079495.1,286046998.3,N
1686079496.0,286046998.3,N
1686079515.8,286046998.9,N
1686079535.7,286046999.2,N
1686079555.5,286046998.4,N
1686079575.3,286046998.7,N
1686079595.2,286046998.7,N
1686079615.0,286047001.2,N
1686079615.9,286047001.2,N
1686079635.8,286046998.1,N
1686079655.6,286047000.4,N
1686079675.4,286047000.0,N
1686079695.3,286047000.2,N
1686079715.1,286047000.6,N
1686079735.8,286047001.0,N
1686079755.7,286047000.0,N
1686079775.5,286046999.7,N
1686079795.4,286047000.4,N
1686079815.2,286047000.4,N
1686079835.0,286047001.0,N
1686079835.9,286047001.0,N
1686079855.8,286047000.8,N
1686079875.6,286046998.6,N
1686079895.4,286047000.6,N
1686079915.3,286047000.2,N
1686079935.1,286046999.8,N
1686079955.9,286047002.7,N
1686079975.7,286047001.0,N
1686079995.5,286047000.6,N
1686080015.4,286046999.9,N
1686080035.2,286046999.8,N
1686080055.0,286047000.9,N
1686080055.9,286047000.9,N
1686080075.8,286046999.8,N
1686080095.6,286047000.1,N
1686080115.5,286047000.4,N
1686080135.3,286047000.1,N
1686080155.1,286047002.8,Y
1686080175.9,286046999.9,P
1686080195.7,286046999.8,N
1686080215.6,286046999.8,N
1686080235.4,286047002.8,Y
1686080255.2,286047000.1,P
1686080275.1,286047002.7,P
1686080276.0,286047002.7,N
1686080295.8,286047000.1,N
1686080345.7,286047001.1,E
1686080355.6,286047000.7,N
1686080375.4,286046998.6,P
1686080395.3,286046998.2,N
1686080415.1,286047001.2,N
1686080435.8,286046998.2,N
1686080455.7,286047001.1,N
1686080475.5,286046998.1,N
1686080495.4,286047000.7,N
1686080515.2,286046998.4,N
1686080535.0,286046998.6,N
1686080535.9,286046998.6,N
1686080555.8,286047000.9,N
1686080575.6,286047000.4,N
1686080595.4,286047000.2,N
1686080615.3,286047002.7,N
1686080635.1,286047002.3,N
1686080655.9,286046999.9,N
1686080675.7,286047000.4,N
1686080695.5,286047000.1,N
1686080715.4,286046998.2,N
1686080735.2,286046998.2,N
1686080755.0,286047000.0,N
1686080755.9,286047000.0,N
1686080775.8,286046998.6,N
1686080795.6,286046998.8,N
1686080815.5,286046998.9,N
1686080835.3,286046996.7,N
1686080855.1,286046996.6,N
1686080875.9,286046999.1,N
1686080895.7,286046999.5,N
1686080915.5,286046998.9,N
1686080935.4,286046999.2,N
1686080955.2,286046999.4,N
1686080975.1,286046998.1,N
1686080976.0,286046998.1,N
1686080995.8,286046998.3,N
1686081015.6,286046998.7,N
1686081035.5,286046999.0,N
1686081055.3,286046998.4,N
1686081075.1,286046998.7,N
1686081095.9,286046998.7,N
1686081115.7,286046999.4,N
1686081135.6,286046999.0,N
1686081155.4,286046998.6,N
1686081175.2,286047001.1,N
1686081195.1,286047000.3,N
1686081196.0,286047000.3,N
1686081215.8,286047000.6,N
1686081235.6,286047001.0,N
1686081255.5,286047001.1,N
1686081275.3,286047000.1,N
1686081295.2,286047000.5,N
1686081315.9,286047000.3,N
1686081335.7,286047000.0,N
1686081355.6,286047000.2,N
1686081375.4,286047002.4,N
1686081395.2,286047000.0,N
1686081415.1,286047000.1,N
1686081416.0,286047000.1,N
1686081435.8,286047000.9,N
1686081455.7,286047000.6,N
1686081475.5,286046999.7,N
1686081495.3,286047000.5,N
1686081515.2,286047000.0,N
1686081535.0,286046999.9,N
1686081535.9,286046999.9,N
1686081555.8,286047000.3,N
1686081575.6,286046999.9,N
1686081595.4,286046999.8,N
